Showing default

TEN-KOH, 43677

Orbit data source: Space-Track

TEN-KOH, 43677 is a payload satellite owned by Kyutech (JP) in SSO that was launched on Mon, 29 Oct 2018 UTC via an H-IIA 202 launch vehicle from the Tanegashima Space Center (TNSTA). Payload-class satellites include a variety of spacecraft equipped with specific instruments for various scientific and technological missions. These include communications satellites like Starlink; space stations such as the ISS; scientific satellites like the Hubble; Earth observation satellites from companies like Planet Labs, Umbra, and HawkEye 360; GPS; miniature CubeSats for education and research; and military/defense satellites.

Loading next visibility...
Identifier
43677, 2018-084G
Orbit
SSO
Last TLE update
9 hours ago
Origin
Manufacturer
Kyutech
Mission
Operational Amateur Technology
Bus & Motor
SHINEN-2, Unknown motor
Mass
22.3 kg wet, 22.3 kg dry
Launch date (UTC)
2018-10-29 (7 years ago)
Launch vehicle
H-IIA 202
Launch site
Tanegashima Space Center (TNSTA)
Object type
Payload
Rocket body
Debris
Shape & HBR
Polyhedral Cyl, 0.5 m
Radar Cross Section
0.295 m², Medium (>0.1 m² and < 1m²)

Expand to show TLE details & history

TLE from 9 hours ago
0 TEN-KOH
1 43677U 18084G   25188.93480065  .00001560  00000-0  12833-3 0  9999
2 43677  98.0846   2.3127 0008093 157.6892 202.4684 15.00677279364493
Epoch: 2025-07-07T22:26Z
TLE epoch observation values (Epoch: 2025-07-07T22:26:06.776Z)
Latitude
-0.00002°
Longitude
99.64746°
Altitude
573.045 km
Speed
7.571 km/s
True Right ascension
00h 09m 15s
True Declination
0° 00' 00"
Sunlit
Object was in daylight at epoch
Visualization orbit readout
Latitude
52.46819°
Longitude
-69.38481°
Altitude
568.468 km
Speed
7.585 km/s
Apparent Right ascension
09h 43m 40s
Apparent Declination
12° 00' 38"
Sunlit
Object is in daylight
Visualization observer readout
Local Sidereal Time
19:05:29
Azimuth
315.939° NNW
Elevation
-26.42°
Doppler factor
1
Orbital elements
Apogee altitude
567.445 km
Perigee altitude
556.212 km
Semi-major axis
6,939.965 km
Eccentricity
0.00081
Inclination
98.0846°
RAAN
2.3127°
Arg. of periapsis
157.6892°
True anomaly
Unknown
Mean anomaly
202.4684°
Eccentric anomaly
Unknown
Mean motion
3.75411 °/min
Orbital period
95.89 mins
BSTAR
0.00012833
Loading maneuver chart data...
Loading SW <> Apogee altitude chart data...

TEN-KOH Visibility forecast

Observer location: undefined°, undefined°

Span
Click to sort rows by Start time (UTC) header in descending order
Start Az.
Max El. time (UTC)
Max El. Az.
Max El.
End time (UTC)
End Az.
7 mins2025-07-08 11:22:00.237Z152.774° SSE2025-07-08 11:25:00.237Z88.194° E41.36°2025-07-08 11:29:00.237Z354.453° N
6 mins2025-07-09 00:37:00.237Z6.342° NNE2025-07-09 00:39:00.237Z338.953° N41.994°2025-07-09 00:43:00.237Z200.399° SSW
|